P4MALC EGPD-EGKA

Flight info

Callsign P4MALC
Flight time N/A
Altitude 7000
Route EPCAN DCT OKPAL DCT UPGET DCT BALID DCT NEXUS DCT MADAD DCT TD DCT GAM DCT ODWAD DCT SHM
Aircraft BT36/L-BDFGLORY/S

Departure

Time 2026-05-01 14:10
Airport Aberdeen International Airport (EGPD)

Arrival

Time N/A
Airport Brighton City Airport (EGKA)
Time Latitude Longitude Altitude Speed Heading
2026-05-01 13:45 57.20248 -2.19504 241 ft 0 kts 308°
2026-05-01 14:04 57.20250 -2.19507 241 ft 2 kts 317°
2026-05-01 14:04 57.20307 -2.19540 241 ft 14 kts 337°
2026-05-01 14:04 57.20349 -2.19639 241 ft 17 kts 273°
2026-05-01 14:05 57.20460 -2.19756 241 ft 18 kts
2026-05-01 14:05 57.20568 -2.19731 241 ft 14 kts 27°
2026-05-01 14:05 57.20646 -2.19590 241 ft 16 kts 48°
2026-05-01 14:05 57.20718 -2.19544 241 ft 12 kts 350°
2026-05-01 14:06 57.20806 -2.19591 241 ft 16 kts 306°
2026-05-01 14:06 57.20860 -2.19788 241 ft 18 kts 311°
2026-05-01 14:06 57.20950 -2.19943 241 ft 14 kts 306°
2026-05-01 14:06 57.20962 -2.19983 241 ft 0 kts 296°
2026-05-01 14:09 57.20967 -2.19998 241 ft 6 kts 297°
2026-05-01 14:09 57.20975 -2.20140 241 ft 15 kts 265°
2026-05-01 14:10 57.20952 -2.20319 241 ft 10 kts 224°
2026-05-01 14:10 57.20774 -2.20202 241 ft 66 kts 156°
2026-05-01 14:10 57.20189 -2.19742 414 ft 103 kts 159°
2026-05-01 14:10 57.19495 -2.19476 956 ft 104 kts 173°
2026-05-01 14:11 57.18748 -2.19281 1493 ft 111 kts 175°
2026-05-01 14:11 57.17240 -2.18869 2721 ft 114 kts 176°
2026-05-01 14:11 57.16455 -2.18641 3280 ft 113 kts 177°
2026-05-01 14:12 57.15698 -2.18442 3830 ft 110 kts 176°
2026-05-01 14:12 57.14916 -2.18191 4351 ft 117 kts 178°
2026-05-01 14:12 57.14123 -2.17974 4911 ft 112 kts 178°
2026-05-01 14:12 57.13365 -2.17747 5464 ft 107 kts 178°
2026-05-01 14:13 57.12645 -2.17534 6034 ft 103 kts 177°
2026-05-01 14:13 57.12174 -2.17394 6385 ft 107 kts 178°
2026-05-01 14:13 57.11123 -2.17097 6969 ft 120 kts 177°
2026-05-01 14:13 57.10181 -2.16838 7014 ft 153 kts 176°
2026-05-01 14:14 57.09074 -2.16521 7013 ft 171 kts 174°
2026-05-01 14:14 57.07891 -2.16156 7009 ft 173 kts 175°
2026-05-01 14:14 57.06694 -2.15795 7007 ft 175 kts 175°
2026-05-01 14:14 57.05493 -2.15436 7012 ft 174 kts 175°
2026-05-01 14:15 57.04300 -2.15081 7008 ft 175 kts 175°
2026-05-01 14:15 57.03086 -2.14730 7012 ft 177 kts 175°
2026-05-01 14:15 57.01875 -2.14370 7003 ft 175 kts 175°
2026-05-01 14:15 57.00677 -2.14016 7005 ft 174 kts 175°
2026-05-01 14:16 56.99486 -2.13668 7004 ft 173 kts 175°
2026-05-01 14:16 56.98290 -2.13326 7004 ft 173 kts 175°
2026-05-01 14:16 56.97102 -2.12966 7006 ft 173 kts 175°
2026-05-01 14:16 56.95918 -2.12616 7007 ft 173 kts 175°
2026-05-01 14:17 56.94731 -2.12271 7008 ft 173 kts 175°
2026-05-01 14:17 56.93542 -2.11925 7008 ft 173 kts 175°
2026-05-01 14:17 56.92356 -2.11563 7007 ft 173 kts 172°
2026-05-01 14:17 56.91177 -2.11077 7010 ft 173 kts 172°
2026-05-01 14:18 56.89999 -2.10633 7011 ft 173 kts 172°
2026-05-01 14:18 56.88825 -2.10184 7015 ft 173 kts 172°
2026-05-01 14:18 56.87645 -2.09727 7016 ft 173 kts 172°
2026-05-01 14:18 56.86877 -2.09430 7015 ft 173 kts 172°
2026-05-01 14:19 56.85305 -2.08820 7017 ft 173 kts 172°
2026-05-01 14:19 56.84129 -2.08364 7020 ft 173 kts 172°
2026-05-01 14:19 56.82949 -2.07907 7018 ft 173 kts 172°
2026-05-01 14:19 56.81773 -2.07452 7019 ft 173 kts 172°
2026-05-01 14:20 56.80597 -2.06998 7016 ft 173 kts 172°
2026-05-01 14:20 56.78289 -2.06110 7095 ft 171 kts 172°
2026-05-01 14:20 56.77119 -2.05661 7096 ft 172 kts 172°
2026-05-01 14:21 56.75947 -2.05210 7096 ft 172 kts 172°
2026-05-01 14:21 56.74773 -2.04759 7099 ft 172 kts 172°
2026-05-01 14:21 56.73599 -2.04307 7099 ft 173 kts 172°
2026-05-01 14:22 56.71246 -2.03404 7100 ft 172 kts 172°
2026-05-01 14:22 56.70071 -2.02954 7102 ft 172 kts 172°
2026-05-01 14:22 56.68898 -2.02504 7099 ft 172 kts 172°
2026-05-01 14:22 56.67719 -2.02054 7101 ft 173 kts 172°
2026-05-01 14:23 56.66545 -2.01604 7102 ft 173 kts 172°
2026-05-01 14:23 56.65370 -2.01155 7100 ft 172 kts 172°
2026-05-01 14:23 56.64197 -2.00706 7100 ft 172 kts 172°
2026-05-01 14:23 56.63038 -2.00264 7104 ft 172 kts 172°
2026-05-01 14:24 56.61863 -1.99815 7102 ft 172 kts 172°
2026-05-01 14:24 56.60689 -1.99367 7099 ft 172 kts 172°
2026-05-01 14:24 56.59516 -1.98920 7101 ft 172 kts 172°
2026-05-01 14:24 56.58342 -1.98472 7104 ft 172 kts 172°
2026-05-01 14:25 56.57171 -1.98026 7104 ft 172 kts 173°
2026-05-01 14:25 56.55997 -1.97579 7102 ft 172 kts 173°
2026-05-01 14:25 56.54824 -1.97133 7103 ft 172 kts 173°
2026-05-01 14:25 56.53652 -1.96688 7104 ft 172 kts 173°
2026-05-01 14:26 56.52874 -1.96392 7103 ft 172 kts 172°
2026-05-01 14:26 56.50125 -1.95349 7102 ft 172 kts 172°
2026-05-01 14:26 56.49349 -1.95054 7101 ft 172 kts 173°
2026-05-01 14:27 56.47794 -1.94465 7102 ft 172 kts 172°
2026-05-01 14:27 56.47002 -1.94165 7104 ft 172 kts 172°
2026-05-01 14:27 56.45446 -1.93576 7099 ft 172 kts 172°
2026-05-01 14:28 56.43478 -1.92832 7101 ft 172 kts 173°
2026-05-01 14:28 56.42305 -1.92390 7100 ft 172 kts 172°
2026-05-01 14:28 56.41133 -1.91947 7098 ft 172 kts 173°
2026-05-01 14:28 56.39962 -1.91505 7110 ft 172 kts 173°
2026-05-01 14:29 56.38805 -1.91069 7108 ft 172 kts 173°
2026-05-01 14:29 56.37634 -1.90628 7108 ft 172 kts 173°
2026-05-01 14:30 56.34107 -1.89301 7101 ft 172 kts 173°
2026-05-01 14:30 56.32933 -1.88859 7102 ft 172 kts 173°
2026-05-01 14:30 56.31759 -1.88419 7103 ft 172 kts 173°
2026-05-01 14:31 56.29410 -1.87537 7100 ft 172 kts 173°
2026-05-01 14:31 56.28237 -1.87098 7106 ft 172 kts 173°
2026-05-01 14:31 56.27063 -1.86658 7104 ft 172 kts 173°
2026-05-01 14:31 56.25887 -1.86218 7102 ft 172 kts 173°
2026-05-01 14:32 56.24711 -1.85777 7099 ft 172 kts 173°
2026-05-01 14:32 56.23535 -1.85338 7101 ft 173 kts 173°
2026-05-01 14:32 56.22371 -1.84903 7103 ft 173 kts 173°
2026-05-01 14:32 56.21192 -1.84463 7100 ft 173 kts 173°
2026-05-01 14:33 56.20015 -1.84023 7103 ft 173 kts 173°
2026-05-01 14:33 56.18836 -1.83583 7102 ft 173 kts 173°
2026-05-01 14:33 56.17659 -1.83145 7099 ft 173 kts 173°
2026-05-01 14:33 56.16481 -1.82706 7101 ft 173 kts 173°
2026-05-01 14:34 56.15303 -1.82267 7099 ft 173 kts 173°
2026-05-01 14:34 56.14129 -1.81830 7097 ft 173 kts 173°
2026-05-01 14:34 56.12947 -1.81392 7100 ft 173 kts 173°
2026-05-01 14:34 56.11767 -1.80953 7101 ft 173 kts 173°
2026-05-01 14:35 56.10589 -1.80515 7100 ft 173 kts 173°
2026-05-01 14:35 56.09428 -1.80084 7100 ft 173 kts 173°
2026-05-01 14:35 56.08250 -1.79647 7096 ft 173 kts 173°
2026-05-01 14:35 56.07071 -1.79211 7099 ft 173 kts 173°
2026-05-01 14:36 56.05893 -1.78774 7099 ft 173 kts 173°
2026-05-01 14:36 56.04713 -1.78337 7099 ft 173 kts 173°
2026-05-01 14:36 56.03534 -1.77901 7097 ft 173 kts 173°
2026-05-01 14:36 56.02355 -1.77465 7097 ft 173 kts 173°
2026-05-01 14:37 56.01180 -1.77031 7093 ft 173 kts 173°
2026-05-01 14:37 56.00002 -1.76595 7099 ft 172 kts 173°
2026-05-01 14:37 55.98824 -1.76161 7098 ft 173 kts 173°
2026-05-01 14:37 55.97646 -1.75727 7099 ft 173 kts 173°
2026-05-01 14:38 55.96468 -1.75292 7095 ft 173 kts 173°
2026-05-01 14:38 55.95290 -1.74858 7094 ft 173 kts 173°
2026-05-01 14:38 55.94127 -1.74431 7097 ft 173 kts 173°
2026-05-01 14:38 55.92952 -1.73998 7094 ft 172 kts 173°
2026-05-01 14:39 55.91777 -1.73565 7094 ft 172 kts 173°
2026-05-01 14:39 55.90601 -1.73199 7095 ft 172 kts 175°
2026-05-01 14:39 55.89421 -1.72835 7098 ft 172 kts 174°
2026-05-01 14:39 55.88243 -1.72460 7094 ft 172 kts 174°
2026-05-01 14:40 55.87063 -1.72095 7093 ft 172 kts 174°
2026-05-01 14:40 55.85885 -1.71734 7094 ft 172 kts 174°
2026-05-01 14:40 55.84708 -1.71375 7090 ft 172 kts 175°
2026-05-01 14:40 55.83531 -1.71016 7091 ft 172 kts 174°
2026-05-01 14:41 55.82355 -1.70656 7091 ft 171 kts 174°
2026-05-01 14:41 55.81180 -1.70298 7092 ft 171 kts 174°
2026-05-01 14:41 55.80006 -1.69941 7089 ft 171 kts 175°
2026-05-01 14:41 55.78830 -1.69582 7090 ft 171 kts 175°
2026-05-01 14:42 55.77657 -1.69226 7090 ft 171 kts 175°
2026-05-01 14:42 55.76483 -1.68869 7091 ft 171 kts 174°
2026-05-01 14:42 55.75313 -1.68513 7089 ft 171 kts 174°
2026-05-01 14:42 55.74143 -1.68157 7090 ft 170 kts 175°
2026-05-01 14:43 55.72973 -1.67802 7090 ft 171 kts 174°
2026-05-01 14:43 55.71802 -1.67447 7090 ft 171 kts 175°
2026-05-01 14:43 55.70631 -1.67091 7089 ft 171 kts 175°
2026-05-01 14:43 55.69471 -1.66740 7087 ft 171 kts 174°
2026-05-01 14:44 55.68301 -1.66386 7091 ft 171 kts 174°
2026-05-01 14:44 55.65959 -1.65677 7088 ft 171 kts 174°
2026-05-01 14:44 55.64789 -1.65323 7090 ft 171 kts 175°
2026-05-01 14:45 55.63618 -1.64969 7089 ft 171 kts 174°
2026-05-01 14:45 55.61276 -1.64263 7091 ft 170 kts 175°
2026-05-01 14:45 55.60124 -1.63915 7088 ft 170 kts 175°
2026-05-01 14:46 55.58951 -1.63561 7089 ft 171 kts 175°
2026-05-01 14:46 55.56606 -1.62856 7087 ft 171 kts 174°
2026-05-01 14:46 55.55434 -1.62502 7087 ft 171 kts 174°
2026-05-01 14:47 55.54262 -1.62150 7087 ft 170 kts 174°
2026-05-01 14:47 55.53094 -1.61799 7086 ft 170 kts 174°
2026-05-01 14:47 55.51922 -1.61447 7091 ft 170 kts 174°
2026-05-01 14:48 55.49599 -1.60750 7091 ft 170 kts 175°
2026-05-01 14:48 55.48429 -1.60399 7089 ft 169 kts 174°
2026-05-01 14:48 55.46096 -1.59702 7088 ft 170 kts 174°
2026-05-01 14:49 55.43760 -1.59002 7086 ft 171 kts 174°
2026-05-01 14:49 55.41417 -1.58302 7088 ft 171 kts 174°
2026-05-01 14:50 55.39865 -1.57839 7090 ft 171 kts 174°
2026-05-01 14:50 55.36729 -1.56904 7091 ft 171 kts 174°
2026-05-01 14:51 55.35551 -1.56553 7089 ft 171 kts 174°
2026-05-01 14:51 55.33199 -1.55854 7087 ft 171 kts 174°
2026-05-01 14:52 55.30852 -1.55155 7088 ft 171 kts 174°
2026-05-01 14:52 55.29681 -1.54807 7089 ft 171 kts 174°
2026-05-01 14:52 55.27334 -1.54112 7088 ft 171 kts 174°
2026-05-01 14:53 55.26161 -1.53765 7088 ft 171 kts 174°
2026-05-01 14:53 55.25002 -1.53421 7091 ft 171 kts 174°
2026-05-01 14:53 55.23827 -1.53073 7088 ft 171 kts 174°
2026-05-01 14:53 55.22650 -1.52725 7090 ft 172 kts 174°
2026-05-01 14:54 55.21471 -1.52377 7092 ft 171 kts 174°
2026-05-01 14:54 55.20296 -1.52030 7091 ft 171 kts 174°
2026-05-01 14:54 55.19121 -1.51683 7092 ft 171 kts 174°
2026-05-01 14:54 55.17947 -1.51336 7092 ft 171 kts 174°
2026-05-01 14:55 55.16773 -1.50990 7092 ft 171 kts 174°
2026-05-01 14:55 55.15593 -1.50642 7091 ft 171 kts 174°
2026-05-01 14:55 55.14419 -1.50296 7091 ft 171 kts 174°
2026-05-01 14:55 55.13243 -1.49950 7094 ft 171 kts 174°
2026-05-01 14:56 55.12069 -1.49604 7095 ft 171 kts 174°
2026-05-01 14:56 55.10891 -1.49258 7094 ft 172 kts 174°
2026-05-01 14:56 55.09728 -1.48917 7095 ft 172 kts 174°
2026-05-01 14:56 55.08526 -1.48563 7101 ft 174 kts 174°
2026-05-01 14:57 55.07346 -1.48220 7095 ft 174 kts 174°
2026-05-01 14:57 55.04974 -1.47522 7094 ft 173 kts 174°
2026-05-01 14:57 55.03784 -1.47172 7094 ft 173 kts 174°
2026-05-01 14:58 55.02594 -1.46824 7097 ft 174 kts 174°
2026-05-01 14:58 55.01404 -1.46477 7097 ft 173 kts 174°
2026-05-01 14:58 55.00213 -1.46129 7096 ft 173 kts 174°
2026-05-01 14:58 54.99023 -1.45779 7100 ft 174 kts 174°
2026-05-01 14:59 54.97843 -1.45434 7093 ft 174 kts 174°
2026-05-01 14:59 54.96652 -1.45088 7090 ft 173 kts 174°
2026-05-01 14:59 54.95468 -1.44742 7096 ft 173 kts 174°
2026-05-01 14:59 54.94285 -1.44398 7094 ft 172 kts 174°
2026-05-01 15:00 54.91917 -1.43707 7096 ft 172 kts 174°
2026-05-01 15:00 54.90738 -1.43361 7089 ft 172 kts 174°
2026-05-01 15:00 54.89557 -1.43021 7091 ft 172 kts 174°
2026-05-01 15:01 54.88378 -1.42679 7094 ft 172 kts 174°
2026-05-01 15:01 54.87199 -1.42335 7092 ft 172 kts 174°
2026-05-01 15:01 54.86020 -1.41992 7088 ft 171 kts 174°
2026-05-01 15:01 54.84853 -1.41654 7096 ft 170 kts 174°
2026-05-01 15:02 54.83686 -1.41315 7097 ft 171 kts 174°
2026-05-01 15:02 54.83305 -1.41206 7096 ft 171 kts 174°
2026-05-01 15:02 54.81338 -1.40635 7096 ft 172 kts 174°
2026-05-01 15:02 54.80174 -1.40299 7094 ft 172 kts 174°
2026-05-01 15:03 54.78990 -1.39956 7100 ft 173 kts 174°
2026-05-01 15:03 54.77803 -1.39606 7103 ft 172 kts 174°
2026-05-01 15:03 54.76614 -1.39270 7091 ft 173 kts 174°
2026-05-01 15:03 54.75427 -1.38922 7098 ft 174 kts 174°
2026-05-01 15:04 54.74230 -1.38581 7095 ft 175 kts 174°
2026-05-01 15:04 54.73035 -1.38239 7095 ft 174 kts 174°
2026-05-01 15:04 54.71842 -1.37893 7110 ft 174 kts 174°
2026-05-01 15:04 54.70647 -1.37546 7099 ft 173 kts 174°
2026-05-01 15:05 54.69457 -1.37204 7106 ft 174 kts 174°
2026-05-01 15:05 54.68261 -1.36862 7107 ft 174 kts 174°
2026-05-01 15:05 54.67063 -1.36521 7110 ft 174 kts 174°
2026-05-01 15:05 54.65865 -1.36167 7101 ft 174 kts 174°
2026-05-01 15:06 54.64690 -1.35828 7106 ft 173 kts 174°
2026-05-01 15:06 54.63487 -1.35485 7105 ft 173 kts 174°
2026-05-01 15:06 54.62306 -1.35153 7106 ft 175 kts 174°
2026-05-01 15:06 54.61109 -1.34808 7109 ft 174 kts 174°
2026-05-01 15:07 54.59915 -1.34459 7103 ft 174 kts 174°
2026-05-01 15:07 54.58724 -1.34124 7104 ft 173 kts 174°
2026-05-01 15:07 54.57531 -1.33784 7102 ft 174 kts 174°
2026-05-01 15:07 54.56334 -1.33439 7106 ft 174 kts 174°
2026-05-01 15:08 54.55140 -1.33087 7103 ft 174 kts 173°
2026-05-01 15:08 54.53948 -1.32706 7101 ft 174 kts 173°
2026-05-01 15:08 54.52761 -1.32331 7103 ft 173 kts 173°
2026-05-01 15:08 54.51570 -1.31965 7099 ft 174 kts 173°
2026-05-01 15:09 54.50379 -1.31592 7100 ft 174 kts 173°
2026-05-01 15:09 54.49193 -1.31228 7099 ft 173 kts 173°
2026-05-01 15:09 54.48006 -1.30852 7100 ft 174 kts 173°
2026-05-01 15:09 54.46819 -1.30485 7108 ft 173 kts 173°
2026-05-01 15:10 54.45625 -1.30118 7107 ft 174 kts 173°
2026-05-01 15:10 54.43259 -1.29384 7096 ft 172 kts 173°
2026-05-01 15:10 54.42081 -1.29020 7096 ft 171 kts 173°
2026-05-01 15:11 54.40906 -1.28655 7105 ft 173 kts 173°
2026-05-01 15:11 54.38538 -1.27922 7106 ft 174 kts 173°
2026-05-01 15:11 54.37347 -1.27555 7097 ft 173 kts 173°
2026-05-01 15:12 54.36155 -1.27184 7107 ft 175 kts 173°
2026-05-01 15:12 54.33752 -1.26445 7099 ft 176 kts 173°
2026-05-01 15:12 54.32560 -1.26081 7101 ft 177 kts 173°
2026-05-01 15:13 54.28925 -1.24956 7097 ft 176 kts 173°
2026-05-01 15:14 54.26521 -1.24221 7097 ft 174 kts 173°
2026-05-01 15:14 54.25336 -1.23856 7095 ft 173 kts 173°
2026-05-01 15:14 54.23378 -1.23256 7098 ft 172 kts 173°
2026-05-01 15:15 54.21018 -1.22537 7096 ft 173 kts 172°
2026-05-01 15:15 54.18648 -1.21803 7095 ft 172 kts 172°
2026-05-01 15:16 54.16282 -1.21083 7096 ft 173 kts 172°
2026-05-01 15:16 54.13914 -1.20359 7104 ft 173 kts 173°
2026-05-01 15:17 54.11547 -1.19637 7105 ft 174 kts 172°
2026-05-01 15:18 54.07992 -1.18550 7093 ft 173 kts 173°
2026-05-01 15:18 54.06800 -1.18196 7096 ft 174 kts 173°
2026-05-01 15:19 54.03249 -1.17108 7096 ft 172 kts 173°
2026-05-01 15:19 54.00897 -1.16399 7104 ft 173 kts 173°
2026-05-01 15:19 53.99710 -1.16038 7100 ft 173 kts 173°
2026-05-01 15:20 53.97362 -1.15327 7106 ft 172 kts 173°
2026-05-01 15:20 53.96184 -1.14969 7101 ft 172 kts 173°
2026-05-01 15:20 53.95008 -1.14615 7106 ft 171 kts 173°
2026-05-01 15:21 53.93835 -1.14262 7103 ft 171 kts 173°
2026-05-01 15:21 53.92656 -1.13905 7102 ft 172 kts 173°
2026-05-01 15:21 53.91477 -1.13547 7100 ft 172 kts 173°
2026-05-01 15:21 53.90298 -1.13189 7100 ft 172 kts 173°
2026-05-01 15:22 53.87953 -1.12485 7106 ft 173 kts 173°
2026-05-01 15:22 53.86761 -1.12123 7104 ft 174 kts 173°
2026-05-01 15:22 53.85570 -1.11762 7109 ft 174 kts 173°
2026-05-01 15:23 53.84376 -1.11405 7105 ft 175 kts 173°
2026-05-01 15:23 53.83176 -1.11049 7103 ft 174 kts 173°
2026-05-01 15:23 53.81985 -1.10688 7102 ft 174 kts 173°
2026-05-01 15:23 53.80789 -1.10333 7098 ft 175 kts 173°
2026-05-01 15:24 53.79596 -1.09971 7102 ft 173 kts 173°
2026-05-01 15:24 53.78407 -1.09614 7099 ft 173 kts 173°
2026-05-01 15:24 53.77224 -1.09254 7101 ft 173 kts 173°
2026-05-01 15:24 53.76036 -1.08902 7105 ft 173 kts 173°
2026-05-01 15:25 53.74853 -1.08548 7097 ft 172 kts 173°
2026-05-01 15:25 53.73672 -1.08194 7098 ft 172 kts 173°
2026-05-01 15:25 53.72490 -1.07842 7102 ft 173 kts 173°
2026-05-01 15:25 53.71302 -1.07486 7096 ft 174 kts 173°
2026-05-01 15:26 53.70115 -1.07130 7102 ft 173 kts 173°
2026-05-01 15:26 53.68930 -1.06776 7102 ft 173 kts 172°
2026-05-01 15:26 53.67758 -1.06426 7101 ft 173 kts 173°
2026-05-01 15:26 53.66567 -1.06072 7103 ft 173 kts 173°
2026-05-01 15:27 53.65380 -1.05718 7104 ft 173 kts 172°
2026-05-01 15:27 53.64191 -1.05362 7095 ft 173 kts 173°
2026-05-01 15:27 53.63007 -1.05009 7103 ft 173 kts 172°
2026-05-01 15:28 53.60635 -1.04304 7099 ft 173 kts 173°
2026-05-01 15:28 53.59450 -1.03952 7096 ft 173 kts 173°
2026-05-01 15:28 53.58273 -1.03601 7098 ft 172 kts 173°
2026-05-01 15:29 53.55923 -1.02902 7096 ft 171 kts 173°
2026-05-01 15:29 53.54747 -1.02555 7091 ft 172 kts 173°
2026-05-01 15:29 53.52402 -1.01860 7097 ft 171 kts 172°
2026-05-01 15:30 53.50055 -1.01164 7099 ft 171 kts 172°
2026-05-01 15:31 53.45395 -0.99786 7098 ft 171 kts 172°
2026-05-01 15:31 53.43054 -0.99091 7102 ft 170 kts 172°
2026-05-01 15:32 53.40720 -0.98409 7099 ft 171 kts 172°
2026-05-01 15:32 53.38367 -0.97714 7094 ft 170 kts 172°
2026-05-01 15:33 53.34852 -0.96677 7101 ft 172 kts 172°
2026-05-01 15:34 53.31318 -0.95642 7108 ft 172 kts 172°